owner,sensor,date,latitude,longitude,vertical_datum,mass_concentration_of_oxygen_in_sea_water,qcFlag 
SCCF RECON,ioos:station:SCCF:53:1,2009-10-01T00:00:00Z,26.6493,-81.8810,2.14,2.6,1111122 
SCCF RECON,ioos:station:SCCF:53:1,2009-10-01T01:00:00Z,26.6493,-81.8810,2.11,2.53,1111122 
SCCF RECON,ioos:station:SCCF:53:1,2009-10-01T02:00:00Z,26.6493,-81.8810,2.12,2.46,1111122 
SCCF RECON,ioos:station:SCCF:53:1,2009-10-01T03:00:00Z,26.6493,-81.8810,2.16,2.34,1111122 
SCCF RECON,ioos:station:SCCF:53:1,2009-10-01T04:00:00Z,26.6493,-81.8810,2.22,3.01,1111122 
SCCF RECON,ioos:station:SCCF:53:1,2009-10-01T05:00:00Z,26.6493,-81.8810,2.279,3.38,1111122 
SCCF RECON,ioos:station:SCCF:53:1,2009-10-01T06:00:00Z,26.6493,-81.8810,2.339,3.42,1111122 
SCCF RECON,ioos:station:SCCF:53:1,2009-10-01T07:00:00Z,26.6493,-81.8810,2.37,3.52,1111122 
SCCF RECON,ioos:station:SCCF:53:1,2009-10-01T08:00:00Z,26.6493,-81.8810,2.34,2.54,1111122 
SCCF RECON,ioos:station:SCCF:53:1,2009-10-01T09:00:00Z,26.6493,-81.8810,2.29,4.18,1111122 
SCCF RECON,ioos:station:SCCF:53:1,2009-10-01T10:00:00Z,26.6493,-81.8810,2.24,3.24,1111122 
SCCF RECON,ioos:station:SCCF:53:1,2009-10-01T11:00:00Z,26.6493,-81.8810,2.189,2.72,1111122 
SCCF RECON,ioos:station:SCCF:53:1,2009-10-01T12:00:00Z,26.6493,-81.8810,2.16,3.18,1111122 
SCCF RECON,ioos:station:SCCF:53:1,2009-10-01T13:00:00Z,26.6493,-81.8810,2.15,2.63,1111122 
SCCF RECON,ioos:station:SCCF:53:1,2009-10-01T14:00:00Z,26.6493,-81.8810,2.18,2.54,1111122 
SCCF RECON,ioos:station:SCCF:53:1,2009-10-01T15:00:00Z,26.6493,-81.8810,2.24,2.86,1111122 
SCCF RECON,ioos:station:SCCF:53:1,2009-10-01T16:00:00Z,26.6493,-81.8810,2.283,3.63,1111122 
SCCF RECON,ioos:station:SCCF:53:1,2009-10-01T17:00:00Z,26.6493,-81.8810,2.349,4.34,1111122 
SCCF RECON,ioos:station:SCCF:53:1,2009-10-01T18:00:00Z,26.6493,-81.8810,2.396,4.73,1111122 
SCCF RECON,ioos:station:SCCF:53:1,2009-10-01T19:00:00Z,26.6493,-81.8810,2.41,5.51,1111122 
SCCF RECON,ioos:station:SCCF:53:1,2009-10-01T20:00:00Z,26.6493,-81.8810,2.389,4.9,1111122 
SCCF RECON,ioos:station:SCCF:53:1,2009-10-01T21:00:00Z,26.6493,-81.8810,2.321,4.48,1111122 
SCCF RECON,ioos:station:SCCF:53:1,2009-10-01T22:00:00Z,26.6493,-81.8810,2.26,4.58,1111122 
SCCF RECON,ioos:station:SCCF:53:1,2009-10-01T23:00:00Z,26.6493,-81.8810,2.21,4.42,1111122 
SCCF RECON,ioos:station:SCCF:53:1,2009-10-02T00:00:00Z,26.6493,-81.8810,2.16,4.14,1111122 
SCCF RECON,ioos:station:SCCF:53:1,2009-10-02T01:00:00Z,26.6493,-81.8810,2.12,4.78,1111122 
SCCF RECON,ioos:station:SCCF:53:1,2009-10-02T02:00:00Z,26.6493,-81.8810,2.11,4.36,1111122 
SCCF RECON,ioos:station:SCCF:53:1,2009-10-02T03:00:00Z,26.6493,-81.8810,2.16,3.28,1111122 
SCCF RECON,ioos:station:SCCF:53:1,2009-10-02T04:00:00Z,26.6493,-81.8810,2.22,4.33,1111122 
SCCF RECON,ioos:station:SCCF:53:1,2009-10-02T05:00:00Z,26.6493,-81.8810,2.28,5.37,1111122 
SCCF RECON,ioos:station:SCCF:53:1,2009-10-02T06:00:00Z,26.6493,-81.8810,2.34,6.17,1111122 
SCCF RECON,ioos:station:SCCF:53:1,2009-10-02T07:00:00Z,26.6493,-81.8810,2.38,6.24,1111122 
SCCF RECON,ioos:station:SCCF:53:1,2009-10-02T08:00:00Z,26.6493,-81.8810,2.38,6.33,1111122 
SCCF RECON,ioos:station:SCCF:53:1,2009-10-02T09:00:00Z,26.6493,-81.8810,2.33,6.25,1111122 
SCCF RECON,ioos:station:SCCF:53:1,2009-10-02T10:00:00Z,26.6493,-81.8810,2.27,5.66,1111122 
SCCF RECON,ioos:station:SCCF:53:1,2009-10-02T11:00:00Z,26.6493,-81.8810,2.22,4.81,1111122 
SCCF RECON,ioos:station:SCCF:53:1,2009-10-02T12:00:00Z,26.6493,-81.8810,2.17,4.58,1111122 
SCCF RECON,ioos:station:SCCF:53:1,2009-10-02T13:00:00Z,26.6493,-81.8810,2.13,4.99,1111122 
SCCF RECON,ioos:station:SCCF:53:1,2009-10-02T14:00:00Z,26.6493,-81.8810,2.14,4.52,1111122 
SCCF RECON,ioos:station:SCCF:53:1,2009-10-02T15:00:00Z,26.6493,-81.8810,2.199,4.12,1111122 
SCCF RECON,ioos:station:SCCF:53:1,2009-10-02T16:00:00Z,26.6493,-81.8810,2.26,5.47,1111122 
SCCF RECON,ioos:station:SCCF:53:1,2009-10-02T17:00:00Z,26.6493,-81.8810,2.321,5.62,1111122 
SCCF RECON,ioos:station:SCCF:53:1,2009-10-02T18:00:00Z,26.6493,-81.8810,2.388,5.99,1111122 
SCCF RECON,ioos:station:SCCF:53:1,2009-10-02T19:00:00Z,26.6493,-81.8810,2.429,6.58,1111122 
SCCF RECON,ioos:station:SCCF:53:1,2009-10-02T20:00:00Z,26.6493,-81.8810,2.438,5.36,1111122 
SCCF RECON,ioos:station:SCCF:53:1,2009-10-02T21:00:00Z,26.6493,-81.8810,2.383,6.3,1111122 
SCCF RECON,ioos:station:SCCF:53:1,2009-10-02T22:00:00Z,26.6493,-81.8810,2.316,6.92,1111122 
SCCF RECON,ioos:station:SCCF:53:1,2009-10-02T23:00:00Z,26.6493,-81.8810,2.261,6.84,1111122 
SCCF RECON,ioos:station:SCCF:53:1,2009-10-03T00:00:00Z,26.6493,-81.8810,2.21,6.52,1111122 
SCCF RECON,ioos:station:SCCF:53:1,2009-10-03T01:00:00Z,26.6493,-81.8810,2.161,6.67,1111122 
SCCF RECON,ioos:station:SCCF:53:1,2009-10-03T02:00:00Z,26.6493,-81.8810,2.13,6.47,1111122 
SCCF RECON,ioos:station:SCCF:53:1,2009-10-03T03:00:00Z,26.6493,-81.8810,2.15,6.11,1111122 
SCCF RECON,ioos:station:SCCF:53:1,2009-10-03T04:00:00Z,26.6493,-81.8810,2.213,6.55,1111122 
SCCF RECON,ioos:station:SCCF:53:1,2009-10-03T05:00:00Z,26.6493,-81.8810,2.27,6.59,1111122 
SCCF RECON,ioos:station:SCCF:53:1,2009-10-03T06:00:00Z,26.6493,-81.8810,2.33,6.75,1111122 
SCCF RECON,ioos:station:SCCF:53:1,2009-10-03T07:00:00Z,26.6493,-81.8810,2.39,7.01,1111122 
SCCF RECON,ioos:station:SCCF:53:1,2009-10-03T08:00:00Z,26.6493,-81.8810,2.41,6.83,1111122 
SCCF RECON,ioos:station:SCCF:53:1,2009-10-03T09:00:00Z,26.6493,-81.8810,2.36,6.51,1111122 
SCCF RECON,ioos:station:SCCF:53:1,2009-10-03T10:00:00Z,26.6493,-81.8810,2.3,6.46,1111122 
SCCF RECON,ioos:station:SCCF:53:1,2009-10-03T11:00:00Z,26.6493,-81.8810,2.24,6.03,1111122 
SCCF RECON,ioos:station:SCCF:53:1,2009-10-03T12:00:00Z,26.6493,-81.8810,2.188,5.86,1111122 
SCCF RECON,ioos:station:SCCF:53:1,2009-10-03T13:00:00Z,26.6493,-81.8810,2.131,5.78,1111122 
SCCF RECON,ioos:station:SCCF:53:1,2009-10-03T14:00:00Z,26.6493,-81.8810,2.091,5.82,1111122 
SCCF RECON,ioos:station:SCCF:53:1,2009-10-03T15:00:00Z,26.6493,-81.8810,2.102,5.53,1111122 
SCCF RECON,ioos:station:SCCF:53:1,2009-10-03T16:00:00Z,26.6493,-81.8810,2.174,6.03,1111122 
SCCF RECON,ioos:station:SCCF:53:1,2009-10-03T17:00:00Z,26.6493,-81.8810,2.229,6.19,1111122 
SCCF RECON,ioos:station:SCCF:53:1,2009-10-03T18:00:00Z,26.6493,-81.8810,2.295,6.51,1111122 
SCCF RECON,ioos:station:SCCF:53:1,2009-10-03T19:00:00Z,26.6493,-81.8810,2.36,6.89,1111122 
SCCF RECON,ioos:station:SCCF:53:1,2009-10-03T20:00:00Z,26.6493,-81.8810,2.398,6.85,1111122 
SCCF RECON,ioos:station:SCCF:53:1,2009-10-03T21:00:00Z,26.6493,-81.8810,2.396,6.03,1111122 
SCCF RECON,ioos:station:SCCF:53:1,2009-10-03T22:00:00Z,26.6493,-81.8810,2.341,7.01,1111122 
SCCF RECON,ioos:station:SCCF:53:1,2009-10-03T23:00:00Z,26.6493,-81.8810,2.281,7.17,1111122 
SCCF RECON,ioos:station:SCCF:53:1,2009-10-04T00:00:00Z,26.6493,-81.8810,2.23,7.11,1111122 
SCCF RECON,ioos:station:SCCF:53:1,2009-10-04T01:00:00Z,26.6493,-81.8810,2.18,6.83,1111122 
SCCF RECON,ioos:station:SCCF:53:1,2009-10-04T02:00:00Z,26.6493,-81.8810,2.141,6.53,1111122 
SCCF RECON,ioos:station:SCCF:53:1,2009-10-04T03:00:00Z,26.6493,-81.8810,2.14,6.22,1111122 
SCCF RECON,ioos:station:SCCF:53:1,2009-10-04T04:00:00Z,26.6493,-81.8810,2.21,6.55,1111122 
SCCF RECON,ioos:station:SCCF:53:1,2009-10-04T05:00:00Z,26.6493,-81.8810,2.27,6.82,1111122 
SCCF RECON,ioos:station:SCCF:53:1,2009-10-04T06:00:00Z,26.6493,-81.8810,2.33,6.99,1111122 
SCCF RECON,ioos:station:SCCF:53:1,2009-10-04T07:00:00Z,26.6493,-81.8810,2.39,6.79,1111122 
SCCF RECON,ioos:station:SCCF:53:1,2009-10-04T08:00:00Z,26.6493,-81.8810,2.42,6.69,1111122 
SCCF RECON,ioos:station:SCCF:53:1,2009-10-04T09:00:00Z,26.6493,-81.8810,2.39,6.31,1111122 
SCCF RECON,ioos:station:SCCF:53:1,2009-10-04T10:00:00Z,26.6493,-81.8810,2.32,6.62,1111122 
SCCF RECON,ioos:station:SCCF:53:1,2009-10-04T11:00:00Z,26.6493,-81.8810,2.27,6.37,1111122 
SCCF RECON,ioos:station:SCCF:53:1,2009-10-04T12:00:00Z,26.6493,-81.8810,2.21,6.19,1111122 
SCCF RECON,ioos:station:SCCF:53:1,2009-10-04T13:00:00Z,26.6493,-81.8810,2.158,6.19,1111122 
SCCF RECON,ioos:station:SCCF:53:1,2009-10-04T14:00:00Z,26.6493,-81.8810,2.106,6.26,1111122 
SCCF RECON,ioos:station:SCCF:53:1,2009-10-04T15:00:00Z,26.6493,-81.8810,2.068,6.28,1111122 
SCCF RECON,ioos:station:SCCF:53:1,2009-10-04T16:00:00Z,26.6493,-81.8810,2.096,6.53,1111122 
SCCF RECON,ioos:station:SCCF:53:1,2009-10-04T17:00:00Z,26.6493,-81.8810,2.155,6.86,1111122 
SCCF RECON,ioos:station:SCCF:53:1,2009-10-04T18:00:00Z,26.6493,-81.8810,2.205,6.86,1111122 
SCCF RECON,ioos:station:SCCF:53:1,2009-10-04T19:00:00Z,26.6493,-81.8810,2.265,6.74,1111122 
SCCF RECON,ioos:station:SCCF:53:1,2009-10-04T20:00:00Z,26.6493,-81.8810,2.32,6.7,1111122 
SCCF RECON,ioos:station:SCCF:53:1,2009-10-04T21:00:00Z,26.6493,-81.8810,2.37,6.9,1111122 
SCCF RECON,ioos:station:SCCF:53:1,2009-10-04T22:00:00Z,26.6493,-81.8810,2.373,6.67,1111122 
SCCF RECON,ioos:station:SCCF:53:1,2009-10-04T23:00:00Z,26.6493,-81.8810,2.33,7.08,1111122 
SCCF RECON,ioos:station:SCCF:53:1,2009-10-05T00:00:00Z,26.6493,-81.8810,2.278,7.55,1111122 
SCCF RECON,ioos:station:SCCF:53:1,2009-10-05T01:00:00Z,26.6493,-81.8810,2.23,7.65,1111122 
SCCF RECON,ioos:station:SCCF:53:1,2009-10-05T02:00:00Z,26.6493,-81.8810,2.188,7.25,1111122 
SCCF RECON,ioos:station:SCCF:53:1,2009-10-05T03:00:00Z,26.6493,-81.8810,2.17,7.09,1111122 
SCCF RECON,ioos:station:SCCF:53:1,2009-10-05T04:00:00Z,26.6493,-81.8810,2.22,7.18,1111122 
SCCF RECON,ioos:station:SCCF:53:1,2009-10-05T05:00:00Z,26.6493,-81.8810,2.29,7.11,1111122 
SCCF RECON,ioos:station:SCCF:53:1,2009-10-05T06:00:00Z,26.6493,-81.8810,2.34,6.93,1111122 
SCCF RECON,ioos:station:SCCF:53:1,2009-10-05T07:00:00Z,26.6493,-81.8810,2.41,6.74,1111122 
SCCF RECON,ioos:station:SCCF:53:1,2009-10-05T08:00:00Z,26.6493,-81.8810,2.46,6.46,1111122 
SCCF RECON,ioos:station:SCCF:53:1,2009-10-05T09:00:00Z,26.6493,-81.8810,2.461,6.28,1111122 
SCCF RECON,ioos:station:SCCF:53:1,2009-10-05T10:00:00Z,26.6493,-81.8810,2.41,6.18,1111122 
SCCF RECON,ioos:station:SCCF:53:1,2009-10-05T11:00:00Z,26.6493,-81.8810,2.34,6.47,1111122 
SCCF RECON,ioos:station:SCCF:53:1,2009-10-05T12:00:00Z,26.6493,-81.8810,2.287,6.63,1111122 
SCCF RECON,ioos:station:SCCF:53:1,2009-10-05T13:00:00Z,26.6493,-81.8810,2.223,6.69,1111122 
SCCF RECON,ioos:station:SCCF:53:1,2009-10-05T14:00:00Z,26.6493,-81.8810,2.169,6.81,1111122 
SCCF RECON,ioos:station:SCCF:53:1,2009-10-05T15:00:00Z,26.6493,-81.8810,2.118,7.06,1111122 
SCCF RECON,ioos:station:SCCF:53:1,2009-10-05T16:00:00Z,26.6493,-81.8810,2.108,6.92,1111122 
SCCF RECON,ioos:station:SCCF:53:1,2009-10-05T17:00:00Z,26.6493,-81.8810,2.168,7.25,1111122 
SCCF RECON,ioos:station:SCCF:53:1,2009-10-05T18:00:00Z,26.6493,-81.8810,2.222,7.48,1111122 
SCCF RECON,ioos:station:SCCF:53:1,2009-10-05T19:00:00Z,26.6493,-81.8810,2.277,7.63,1111122 
SCCF RECON,ioos:station:SCCF:53:1,2009-10-05T20:00:00Z,26.6493,-81.8810,2.345,7.55,1111122 
SCCF RECON,ioos:station:SCCF:53:1,2009-10-05T21:00:00Z,26.6493,-81.8810,2.389,7.2,1111122 
SCCF RECON,ioos:station:SCCF:53:1,2009-10-05T22:00:00Z,26.6493,-81.8810,2.4,6.26,1111122 
SCCF RECON,ioos:station:SCCF:53:1,2009-10-05T23:00:00Z,26.6493,-81.8810,2.38,6.43,1111122 
SCCF RECON,ioos:station:SCCF:53:1,2009-10-06T00:00:00Z,26.6493,-81.8810,2.321,6.97,1111122 
SCCF RECON,ioos:station:SCCF:53:1,2009-10-06T01:00:00Z,26.6493,-81.8810,2.27,7.3,1111122 
SCCF RECON,ioos:station:SCCF:53:1,2009-10-06T02:00:00Z,26.6493,-81.8810,2.224,7.52,1111122 
SCCF RECON,ioos:station:SCCF:53:1,2009-10-06T03:00:00Z,26.6493,-81.8810,2.19,7.31,1111122 
SCCF RECON,ioos:station:SCCF:53:1,2009-10-06T04:00:00Z,26.6493,-81.8810,2.21,7.13,1111122 
SCCF RECON,ioos:station:SCCF:53:1,2009-10-06T05:00:00Z,26.6493,-81.8810,2.29,6.7,1111122 
SCCF RECON,ioos:station:SCCF:53:1,2009-10-06T06:00:00Z,26.6493,-81.8810,2.35,6.27,1111122 
SCCF RECON,ioos:station:SCCF:53:1,2009-10-06T07:00:00Z,26.6493,-81.8810,2.41,6.12,1111122 
SCCF RECON,ioos:station:SCCF:53:1,2009-10-06T08:00:00Z,26.6493,-81.8810,2.46,6.14,1111122 
SCCF RECON,ioos:station:SCCF:53:1,2009-10-06T09:00:00Z,26.6493,-81.8810,2.49,5.95,1111122 
SCCF RECON,ioos:station:SCCF:53:1,2009-10-06T10:00:00Z,26.6493,-81.8810,2.46,5.57,1111122 
SCCF RECON,ioos:station:SCCF:53:1,2009-10-06T11:00:00Z,26.6493,-81.8810,2.39,5.73,1111122 
SCCF RECON,ioos:station:SCCF:53:1,2009-10-06T12:00:00Z,26.6493,-81.8810,2.33,6.22,1111122 
SCCF RECON,ioos:station:SCCF:53:1,2009-10-06T13:00:00Z,26.6493,-81.8810,2.268,6.54,1111122 
SCCF RECON,ioos:station:SCCF:53:1,2009-10-06T14:00:00Z,26.6493,-81.8810,2.2,6.39,1111122 
SCCF RECON,ioos:station:SCCF:53:1,2009-10-06T15:00:00Z,26.6493,-81.8810,2.14,6.78,1111122 
SCCF RECON,ioos:station:SCCF:53:1,2009-10-06T16:00:00Z,26.6493,-81.8810,2.083,6.63,1111122 
SCCF RECON,ioos:station:SCCF:53:1,2009-10-06T17:00:00Z,26.6493,-81.8810,2.072,6.76,1111122 
SCCF RECON,ioos:station:SCCF:53:1,2009-10-06T18:00:00Z,26.6493,-81.8810,2.13,5.71,1111122 
SCCF RECON,ioos:station:SCCF:53:1,2009-10-06T19:00:00Z,26.6493,-81.8810,2.189,5.62,1111122 
SCCF RECON,ioos:station:SCCF:53:1,2009-10-06T20:00:00Z,26.6493,-81.8810,2.24,5.53,1111122 
SCCF RECON,ioos:station:SCCF:53:1,2009-10-06T21:00:00Z,26.6493,-81.8810,2.31,5.68,1111122 
SCCF RECON,ioos:station:SCCF:53:1,2009-10-06T22:00:00Z,26.6493,-81.8810,2.353,6.25,1111122 
SCCF RECON,ioos:station:SCCF:53:1,2009-10-06T23:00:00Z,26.6493,-81.8810,2.37,6.22,1111122 
SCCF RECON,ioos:station:SCCF:53:1,2009-10-07T00:00:00Z,26.6493,-81.8810,2.34,5.32,1111122 
SCCF RECON,ioos:station:SCCF:53:1,2009-10-07T01:00:00Z,26.6493,-81.8810,2.3,5.99,1111122 
SCCF RECON,ioos:station:SCCF:53:1,2009-10-07T02:00:00Z,26.6493,-81.8810,2.26,6.3,1111122 
SCCF RECON,ioos:station:SCCF:53:1,2009-10-07T03:00:00Z,26.6493,-81.8810,2.23,6.03,1111122 
SCCF RECON,ioos:station:SCCF:53:1,2009-10-07T04:00:00Z,26.6493,-81.8810,2.24,5.62,1111122 
SCCF RECON,ioos:station:SCCF:53:1,2009-10-07T05:00:00Z,26.6493,-81.8810,2.31,5.53,1111122 
SCCF RECON,ioos:station:SCCF:53:1,2009-10-07T06:00:00Z,26.6493,-81.8810,2.37,5.41,1111122 
SCCF RECON,ioos:station:SCCF:53:1,2009-10-07T07:00:00Z,26.6493,-81.8810,2.43,5.52,1111122 
SCCF RECON,ioos:station:SCCF:53:1,2009-10-07T08:00:00Z,26.6493,-81.8810,2.49,5.21,1111122 
SCCF RECON,ioos:station:SCCF:53:1,2009-10-07T09:00:00Z,26.6493,-81.8810,2.53,4.94,1111122 
SCCF RECON,ioos:station:SCCF:53:1,2009-10-07T10:00:00Z,26.6493,-81.8810,2.53,3.33,1111122 
SCCF RECON,ioos:station:SCCF:53:1,2009-10-07T11:00:00Z,26.6493,-81.8810,2.47,4.47,1111122 
SCCF RECON,ioos:station:SCCF:53:1,2009-10-07T12:00:00Z,26.6493,-81.8810,2.418,4.53,1111122 
SCCF RECON,ioos:station:SCCF:53:1,2009-10-07T13:00:00Z,26.6493,-81.8810,2.36,4.86,1111122 
SCCF RECON,ioos:station:SCCF:53:1,2009-10-07T14:00:00Z,26.6493,-81.8810,2.297,4.62,1111122 
SCCF RECON,ioos:station:SCCF:53:1,2009-10-07T15:00:00Z,26.6493,-81.8810,2.234,4.45,1111122 
SCCF RECON,ioos:station:SCCF:53:1,2009-10-07T16:00:00Z,26.6493,-81.8810,2.17,4.24,1111122 
SCCF RECON,ioos:station:SCCF:53:1,2009-10-07T17:00:00Z,26.6493,-81.8810,2.11,4.59,1111122 
SCCF RECON,ioos:station:SCCF:53:1,2009-10-07T18:00:00Z,26.6493,-81.8810,2.1,4.63,1111122 
SCCF RECON,ioos:station:SCCF:53:1,2009-10-07T19:00:00Z,26.6493,-81.8810,2.144,4.7,1111122 
SCCF RECON,ioos:station:SCCF:53:1,2009-10-07T20:00:00Z,26.6493,-81.8810,2.196,4.77,1111122 
SCCF RECON,ioos:station:SCCF:53:1,2009-10-07T21:00:00Z,26.6493,-81.8810,2.248,4.36,1111122 
SCCF RECON,ioos:station:SCCF:53:1,2009-10-07T22:00:00Z,26.6493,-81.8810,2.3,5.5,1111122 
SCCF RECON,ioos:station:SCCF:53:1,2009-10-07T23:00:00Z,26.6493,-81.8810,2.335,4.98,1111122 
SCCF RECON,ioos:station:SCCF:53:1,2009-10-08T00:00:00Z,26.6493,-81.8810,2.332,4.16,1111122 
SCCF RECON,ioos:station:SCCF:53:1,2009-10-08T01:00:00Z,26.6493,-81.8810,2.3,4.63,1111122 
SCCF RECON,ioos:station:SCCF:53:1,2009-10-08T02:00:00Z,26.6493,-81.8810,2.26,4.46,1111122 
SCCF RECON,ioos:station:SCCF:53:1,2009-10-08T03:00:00Z,26.6493,-81.8810,2.228,4.11,1111122 
SCCF RECON,ioos:station:SCCF:53:1,2009-10-08T04:00:00Z,26.6493,-81.8810,2.2,4.1,1111122 
SCCF RECON,ioos:station:SCCF:53:1,2009-10-08T05:00:00Z,26.6493,-81.8810,2.23,3.73,1111122 
SCCF RECON,ioos:station:SCCF:53:1,2009-10-08T06:00:00Z,26.6493,-81.8810,2.3,3.7,1111122 
SCCF RECON,ioos:station:SCCF:53:1,2009-10-08T07:00:00Z,26.6493,-81.8810,2.36,3.8,1111122 
SCCF RECON,ioos:station:SCCF:53:1,2009-10-08T08:00:00Z,26.6493,-81.8810,2.42,3.96,1111122 
SCCF RECON,ioos:station:SCCF:53:1,2009-10-08T09:00:00Z,26.6493,-81.8810,2.466,4.07,1111122 
SCCF RECON,ioos:station:SCCF:53:1,2009-10-08T10:00:00Z,26.6493,-81.8810,2.49,3.75,1111122 
SCCF RECON,ioos:station:SCCF:53:1,2009-10-08T11:00:00Z,26.6493,-81.8810,2.47,3.32,1111122 
SCCF RECON,ioos:station:SCCF:53:1,2009-10-08T12:00:00Z,26.6493,-81.8810,2.409,3.21,1111122 
SCCF RECON,ioos:station:SCCF:53:1,2009-10-08T13:00:00Z,26.6493,-81.8810,2.34,3.3,1111122 
SCCF RECON,ioos:station:SCCF:53:1,2009-10-08T14:00:00Z,26.6493,-81.8810,2.28,3.37,1111122 
SCCF RECON,ioos:station:SCCF:53:1,2009-10-08T15:00:00Z,26.6493,-81.8810,2.22,3.62,1111122 
SCCF RECON,ioos:station:SCCF:53:1,2009-10-08T16:00:00Z,26.6493,-81.8810,2.15,3.78,1111122 
SCCF RECON,ioos:station:SCCF:53:1,2009-10-08T17:00:00Z,26.6493,-81.8810,2.08,3.57,1111122 
SCCF RECON,ioos:station:SCCF:53:1,2009-10-08T18:00:00Z,26.6493,-81.8810,2.03,3.94,1111122 
SCCF RECON,ioos:station:SCCF:53:1,2009-10-08T19:00:00Z,26.6493,-81.8810,2.01,3.8,1111122 
SCCF RECON,ioos:station:SCCF:53:1,2009-10-08T20:00:00Z,26.6493,-81.8810,2.042,4.0,1111122 
SCCF RECON,ioos:station:SCCF:53:1,2009-10-08T21:00:00Z,26.6493,-81.8810,2.1,4.03,1111122 
SCCF RECON,ioos:station:SCCF:53:1,2009-10-08T22:00:00Z,26.6493,-81.8810,2.15,4.05,1111122 
SCCF RECON,ioos:station:SCCF:53:1,2009-10-08T23:00:00Z,26.6493,-81.8810,2.217,3.86,1111122 
SCCF RECON,ioos:station:SCCF:53:1,2009-10-09T00:00:00Z,26.6493,-81.8810,2.26,3.55,1111122 
SCCF RECON,ioos:station:SCCF:53:1,2009-10-09T01:00:00Z,26.6493,-81.8810,2.28,2.69,1111122 
SCCF RECON,ioos:station:SCCF:53:1,2009-10-09T02:00:00Z,26.6493,-81.8810,2.28,3.13,1111122 
SCCF RECON,ioos:station:SCCF:53:1,2009-10-09T03:00:00Z,26.6493,-81.8810,2.26,3.26,1111122 
SCCF RECON,ioos:station:SCCF:53:1,2009-10-09T04:00:00Z,26.6493,-81.8810,2.24,3.46,1111122 
SCCF RECON,ioos:station:SCCF:53:1,2009-10-09T05:00:00Z,26.6493,-81.8810,2.26,3.57,1111122 
SCCF RECON,ioos:station:SCCF:53:1,2009-10-09T06:00:00Z,26.6493,-81.8810,2.32,3.76,1111122 
SCCF RECON,ioos:station:SCCF:53:1,2009-10-09T07:00:00Z,26.6493,-81.8810,2.37,3.48,1111122 
SCCF RECON,ioos:station:SCCF:53:1,2009-10-09T08:00:00Z,26.6493,-81.8810,2.42,3.74,1111122 
SCCF RECON,ioos:station:SCCF:53:1,2009-10-09T09:00:00Z,26.6493,-81.8810,2.461,4.14,1111122 
SCCF RECON,ioos:station:SCCF:53:1,2009-10-09T10:00:00Z,26.6493,-81.8810,2.51,4.18,1111122 
SCCF RECON,ioos:station:SCCF:53:1,2009-10-09T11:00:00Z,26.6493,-81.8810,2.53,3.82,1111122 
SCCF RECON,ioos:station:SCCF:53:1,2009-10-09T12:00:00Z,26.6493,-81.8810,2.503,3.99,1111122 
SCCF RECON,ioos:station:SCCF:53:1,2009-10-09T13:00:00Z,26.6493,-81.8810,2.444,4.49,1111122 
SCCF RECON,ioos:station:SCCF:53:1,2009-10-09T14:00:00Z,26.6493,-81.8810,2.39,3.91,1111122 
SCCF RECON,ioos:station:SCCF:53:1,2009-10-09T15:00:00Z,26.6493,-81.8810,2.32,3.85,1111122 
SCCF RECON,ioos:station:SCCF:53:1,2009-10-09T16:00:00Z,26.6493,-81.8810,2.25,3.87,1111122 
SCCF RECON,ioos:station:SCCF:53:1,2009-10-09T17:00:00Z,26.6493,-81.8810,2.171,3.67,1111122 
SCCF RECON,ioos:station:SCCF:53:1,2009-10-09T18:00:00Z,26.6493,-81.8810,2.11,2.85,1111122 
SCCF RECON,ioos:station:SCCF:53:1,2009-10-09T19:00:00Z,26.6493,-81.8810,2.065,3.54,1111122 
SCCF RECON,ioos:station:SCCF:53:1,2009-10-09T20:00:00Z,26.6493,-81.8810,2.061,3.79,1111122 
SCCF RECON,ioos:station:SCCF:53:1,2009-10-09T21:00:00Z,26.6493,-81.8810,2.102,3.5,1111122 
SCCF RECON,ioos:station:SCCF:53:1,2009-10-09T22:00:00Z,26.6493,-81.8810,2.15,4.27,1111122 
SCCF RECON,ioos:station:SCCF:53:1,2009-10-09T23:00:00Z,26.6493,-81.8810,2.197,3.36,1111122 
SCCF RECON,ioos:station:SCCF:53:1,2009-10-10T00:00:00Z,26.6493,-81.8810,2.249,4.24,1111122 
SCCF RECON,ioos:station:SCCF:53:1,2009-10-10T01:00:00Z,26.6493,-81.8810,2.29,4.67,1111122 
SCCF RECON,ioos:station:SCCF:53:1,2009-10-10T02:00:00Z,26.6493,-81.8810,2.31,4.56,1111122 
SCCF RECON,ioos:station:SCCF:53:1,2009-10-10T03:00:00Z,26.6493,-81.8810,2.32,4.66,1111122 
SCCF RECON,ioos:station:SCCF:53:1,2009-10-10T04:00:00Z,26.6493,-81.8810,2.307,4.67,1111122 
SCCF RECON,ioos:station:SCCF:53:1,2009-10-10T05:00:00Z,26.6493,-81.8810,2.3,4.07,1111122 
SCCF RECON,ioos:station:SCCF:53:1,2009-10-10T06:00:00Z,26.6493,-81.8810,2.304,4.78,1111122 
SCCF RECON,ioos:station:SCCF:53:1,2009-10-10T07:00:00Z,26.6493,-81.8810,2.34,5.09,1111122 
SCCF RECON,ioos:station:SCCF:53:1,2009-10-10T08:00:00Z,26.6493,-81.8810,2.39,4.18,1111122 
SCCF RECON,ioos:station:SCCF:53:1,2009-10-10T09:00:00Z,26.6493,-81.8810,2.44,4.31,1111122 
SCCF RECON,ioos:station:SCCF:53:1,2009-10-10T10:00:00Z,26.6493,-81.8810,2.48,4.13,1111122 
SCCF RECON,ioos:station:SCCF:53:1,2009-10-10T11:00:00Z,26.6493,-81.8810,2.51,3.85,1111122 
SCCF RECON,ioos:station:SCCF:53:1,2009-10-10T12:00:00Z,26.6493,-81.8810,2.51,3.12,1111122 
SCCF RECON,ioos:station:SCCF:53:1,2009-10-10T13:00:00Z,26.6493,-81.8810,2.478,3.18,1111122 
SCCF RECON,ioos:station:SCCF:53:1,2009-10-10T14:00:00Z,26.6493,-81.8810,2.42,3.82,1111122 
SCCF RECON,ioos:station:SCCF:53:1,2009-10-10T15:00:00Z,26.6493,-81.8810,2.359,3.93,1111122 
SCCF RECON,ioos:station:SCCF:53:1,2009-10-10T16:00:00Z,26.6493,-81.8810,2.295,3.9,1111122 
SCCF RECON,ioos:station:SCCF:53:1,2009-10-10T17:00:00Z,26.6493,-81.8810,2.228,4.0,1111122 
SCCF RECON,ioos:station:SCCF:53:1,2009-10-10T18:00:00Z,26.6493,-81.8810,2.16,3.97,1111122 
SCCF RECON,ioos:station:SCCF:53:1,2009-10-10T19:00:00Z,26.6493,-81.8810,2.1,4.22,1111122 
SCCF RECON,ioos:station:SCCF:53:1,2009-10-10T20:00:00Z,26.6493,-81.8810,2.061,4.47,1111122 
SCCF RECON,ioos:station:SCCF:53:1,2009-10-10T21:00:00Z,26.6493,-81.8810,2.053,3.91,1111122 
SCCF RECON,ioos:station:SCCF:53:1,2009-10-10T22:00:00Z,26.6493,-81.8810,2.08,4.26,1111122 
SCCF RECON,ioos:station:SCCF:53:1,2009-10-10T23:00:00Z,26.6493,-81.8810,2.128,4.41,1111122 
SCCF RECON,ioos:station:SCCF:53:1,2009-10-11T00:00:00Z,26.6493,-81.8810,2.175,4.49,1111122 
SCCF RECON,ioos:station:SCCF:53:1,2009-10-11T01:00:00Z,26.6493,-81.8810,2.229,4.1,1111122 
SCCF RECON,ioos:station:SCCF:53:1,2009-10-11T02:00:00Z,26.6493,-81.8810,2.27,4.46,1111122 
SCCF RECON,ioos:station:SCCF:53:1,2009-10-11T03:00:00Z,26.6493,-81.8810,2.3,3.39,1111122 
SCCF RECON,ioos:station:SCCF:53:1,2009-10-11T04:00:00Z,26.6493,-81.8810,2.32,3.38,1111122 
SCCF RECON,ioos:station:SCCF:53:1,2009-10-11T05:00:00Z,26.6493,-81.8810,2.31,3.41,1111122 
SCCF RECON,ioos:station:SCCF:53:1,2009-10-11T06:00:00Z,26.6493,-81.8810,2.3,3.72,1111122 
SCCF RECON,ioos:station:SCCF:53:1,2009-10-11T07:00:00Z,26.6493,-81.8810,2.28,3.46,1111122 
SCCF RECON,ioos:station:SCCF:53:1,2009-10-11T08:00:00Z,26.6493,-81.8810,2.29,4.53,1111122 
SCCF RECON,ioos:station:SCCF:53:1,2009-10-11T09:00:00Z,26.6493,-81.8810,2.34,4.09,1111122 
SCCF RECON,ioos:station:SCCF:53:1,2009-10-11T10:00:00Z,26.6493,-81.8810,2.39,4.19,1111122 
SCCF RECON,ioos:station:SCCF:53:1,2009-10-11T11:00:00Z,26.6493,-81.8810,2.43,4.31,1111122 
SCCF RECON,ioos:station:SCCF:53:1,2009-10-11T12:00:00Z,26.6493,-81.8810,2.47,3.94,1111122 
SCCF RECON,ioos:station:SCCF:53:1,2009-10-11T13:00:00Z,26.6493,-81.8810,2.49,3.92,1111122 
SCCF RECON,ioos:station:SCCF:53:1,2009-10-11T14:00:00Z,26.6493,-81.8810,2.47,3.57,1111122 
SCCF RECON,ioos:station:SCCF:53:1,2009-10-11T15:00:00Z,26.6493,-81.8810,2.41,3.61,1111122 
SCCF RECON,ioos:station:SCCF:53:1,2009-10-11T16:00:00Z,26.6493,-81.8810,2.348,3.9,1111122 
SCCF RECON,ioos:station:SCCF:53:1,2009-10-11T17:00:00Z,26.6493,-81.8810,2.28,3.54,1111122 
SCCF RECON,ioos:station:SCCF:53:1,2009-10-11T18:00:00Z,26.6493,-81.8810,2.21,3.55,1111122 
SCCF RECON,ioos:station:SCCF:53:1,2009-10-11T19:00:00Z,26.6493,-81.8810,2.144,3.4,1111122 
SCCF RECON,ioos:station:SCCF:53:1,2009-10-11T20:00:00Z,26.6493,-81.8810,2.086,2.76,1111122 